[[{"header":{"parameterUnit":"m.s-1","parameterCategory":2,"la1":30.2991,"la2":30.254,"lo1":-89.0895,"lo2":-89.0444,"dy":0.0017,"dx":0.0017,"nx":28,"ny":28,"refTime":"2023-10-25T09:00:00:Z","depth":"0","parameterNumber":2,"parameterNumberName":"U-component_of_CURRENTS"},"data":[0,0,0,0,0,0,0,0,0,0,0,0,0,0,0,0,0,0,0,0,0,0,0,0,0,0,0,0,0,0,0,0,0,0,0,0,0,0,0,0,0,0,0,0,0,0,0,0,0,0,0,0,0,0,0,0,0,0,0.2686,0.2687,0,0.2686,0.2686,0.2685,0.2675,0.2675,0.2675,0.2675,0.264,0.2639,0.2638,0,0,0,0,0,0,0,0,0,0,0,0,0,0.2633,0.2634,0.2686,0.2687,0.2687,0.2686,0.2685,0.2685,0.2675,0.2675,0.2675,0.2675,0.264,0.2639,0.2638,0,0,0,0,0,0,0,0,0,0,0,0,0,0.2644,0.2634,0.2686,0.2684,0.2683,0.2686,0.2685,0.2685,0.2675,0.2675,0.2675,0.2675,0.264,0.2639,0.2638,0.263,0,0,0.2634,0.2633,0,0,0,0,0,0,0,0,0.2644,0.2646,0.2684,0.2684,0.2684,0.2683,0.2654,0.2666,0.2675,0.2675,0.2675,0.2675,0.2653,0.265,0.2647,0.2628,0.2627,0.2633,0.2633,0.2632,0.2632,0,0,0,0,0,0,0,0.2643,0.2646,0.2684,0.2684,0.2684,0.2667,0.2668,0.2656,0.2662,0.2675,0.2675,0.2679,0.2652,0.2648,0.2646,0.2626,0.2634,0.2632,0.2631,0.2631,0.2615,0.2615,0,0,0,0,0,0,0.2651,0.2645,0.2684,0.2684,0.2666,0.2668,0.267,0.2681,0.2663,0.2661,0.2679,0.2679,0.2651,0.2648,0.2645,0.2637,0.2632,0.2631,0.263,0.2614,0.2615,0.2615,0,0,0,0,0,0,0.265,0.2655,0.2684,0.2666,0.2669,0.267,0.2682,0.2681,0.2678,0.2666,0.2663,0.2678,0.2651,0.2647,0.2632,0.2635,0.263,0.2629,0.2614,0.2614,0.2615,0.2619,0,0,0,0,0,0,0.2649,0.2654,0.2661,0.2667,0.267,0.2691,0.2682,0.2681,0.2682,0.2681,0.2664,0.2661,0.265,0.2635,0.2631,0.2633,0.2628,0.2613,0.2614,0.2615,0.2619,0.262,0.2621,0,0,0,0,0,0.2647,0.2657,0.2661,0.2666,0.2681,0.2692,0.2692,0.269,0.2682,0.2685,0.2668,0.2661,0.2637,0.2633,0.2629,0.2631,0.2613,0.2614,0.2615,0.2618,0.262,0.2621,0,0,0,0,0,0,0.2627,0.2657,0.2662,0.2678,0.2688,0.2691,0.2693,0.269,0.268,0.2677,0.2659,0.2654,0.2649,0.2639,0.2635,0.2631,0.2627,0.2627,0.2631,0.2632,0.2634,0.2663,0.2627,0,0,0,0,0,0.263,0.2651,0.2669,0.268,0.2688,0.269,0.2692,0.2694,0.2688,0.2684,0.2671,0.2659,0.265,0.2639,0.2635,0.2622,0.2657,0.2625,0.2626,0.2627,0.265,0.27,0.2708,0.2618,0.2618,0.2618,0,0,0.2623,0.2644,0.2654,0.2679,0.2685,0.2689,0.269,0.27,0.2697,0.2681,0.2669,0.2665,0.265,0.2643,0.2639,0.2632,0.2671,0.2628,0.2629,0.2652,0.2702,0.2711,0.2719,0.2619,0.2619,0.2618,0,0,0.2622,0.2643,0.2659,0.2669,0.2689,0.2692,0.2696,0.2703,0.2702,0.2692,0.2685,0.2686,0.2659,0.266,0.2652,0.2658,0.2682,0.2651,0.2671,0.2718,0.2727,0.2734,0.2793,0.2806,0.2643,0.2643,0.2643,0,0.261,0.2637,0.2662,0.2674,0.2678,0.2692,0.2695,0.2696,0.2695,0.2704,0.2689,0.2691,0.2671,0.2679,0.2677,0.2661,0.2699,0.2661,0.2721,0.273,0.2738,0.2796,0.281,0.2644,0.2644,0.2644,0.2644,0,0.2622,0.2637,0.2645,0.2668,0.2673,0.2683,0.2691,0.2697,0.2694,0.2705,0.2723,0.2709,0.272,0.2704,0.2684,0.2728,0.2741,0.2723,0.2719,0.2747,0.2807,0.2822,0.2644,0.2644,0.2644,0.2644,0,0,0.2595,0.2647,0.2643,0.2655,0.2673,0.2678,0.268,0.2699,0.2721,0.2722,0.2751,0.2736,0.2762,0.2758,0.2747,0.2773,0.2847,0.277,0.2772,0.2833,0.2973,0.2975,0.2992,0.284,0.2843,0.2845,0.2993,0,0.259,0.2621,0.2641,0.2646,0.2658,0.2672,0.2678,0.2698,0.2718,0.2753,0.2767,0.279,0.2772,0.2781,0.2812,0.285,0.2886,0.281,0.2934,0.2939,0.2941,0.3009,0.2906,0.303,0.3008,0.301,0.3012,0,0.258,0.2606,0.2624,0.2655,0.266,0.2663,0.2693,0.2707,0.2762,0.2785,0.2832,0.2851,0.2906,0.287,0.2982,0.2938,0.2964,0.2982,0.2988,0.3005,0.2969,0.2998,0.3058,0.2991,0.3035,0.3033,0.3031,0,0.255,0.2583,0.2601,0.2609,0.2648,0.2654,0.2672,0.272,0.2754,0.282,0.2871,0.2933,0.3,0.3032,0.3096,0.3041,0.3227,0.315,0.318,0.3181,0.3128,0.312,0.3143,0.3226,0.3226,0.3225,0.3225,0,0.2534,0.2537,0.2593,0.2601,0.2616,0.2648,0.268,0.2713,0.279,0.2862,0.2902,0.2985,0.3048,0.3153,0.3154,0.3258,0.3289,0.3222,0.323,0.3126,0.3116,0.3082,0.3031,0.3231,0.323,0.3228,0.3227,0,0.2483,0.2526,0.2545,0.2595,0.2603,0.2614,0.2672,0.2711,0.28,0.2897,0.2924,0.3074,0.3226,0.3294,0.3396,0.3371,0.3336,0.3438,0.3325,0.3317,0.3222,0.3174,0.3108,0.3011,0.3472,0.3473,0.3474,0,0.2456,0.2471,0.2526,0.2538,0.2554,0.2582,0.2605,0.269,0.2749,0.2953,0.3008,0.3202,0.3315,0.3501,0.3519,0.3566,0.3423,0.3464,0.3318,0.3242,0.3196,0.3036,0.2946,0.3253,0.3252,0.3251,0.3251,0,0.2399,0.2431,0.2458,0.2489,0.2511,0.2539,0.2594,0.2636,0.2773,0.2883,0.3062,0.3171,0.3406,0.3442,0.3543,0.3533,0.3296,0.3448,0.3393,0.3064,0.2868,0.277,0.3142,0.3244,0.3244,0.3245,0.3245,0.3246,0.2343,0.2355,0.2405,0.242,0.2449,0.2479,0.2473,0.2571,0.2661,0.2802,0.3005,0.3135,0.3304,0.3438,0.3419,0.335,0.3284,0.3214,0.3179,0.3038,0.2883,0.3257,0.3345,0.3346,0.3347,0.3348,0.3349,0,0.2259,0.2297,0.2326,0.2342,0.2337,0.239,0.2445,0.2435,0.2498,0.2688,0.2827,0.3021,0.3091,0.3181,0.3216,0.3094,0.2903,0.3005,0.2746,0.268,0.3056,0.2984,0.2968,0.2968,0.2968,0.2968,0.2968,0.2968,0.222,0.2226,0.2252,0.2215,0.2225,0.2186,0.2193,0.2219,0.2308,0.2425,0.2542,0.2704,0.295,0.3074,0.3005,0.2922,0.266,0.2555,0.2525,0.2796,0.2811,0.2825,0.2747,0.2681,0.268,0.203,0.2025,0.2022]},{"header":{"parameterUnit":"m.s-1","parameterCategory":2,"la1":30.2991,"la2":30.254,"lo1":-89.0895,"lo2":-89.0444,"dy":0.0017,"dx":0.0017,"nx":28,"ny":28,"refTime":"2023-10-25T09:00:00:Z","depth":"0","parameterNumber":3,"parameterNumberName":"V-component_of_CURRENTS"},"data":[0,0,0,0,0,0,0,0,0,0,0,0,0,0,0,0,0,0,0,0,0,0,0,0,0,0,0,0,0,0,0,0,0,0,0,0,0,0,0,0,0,0,0,0,0,0,0,0,0,0,0,0,0,0,0,0,0,0,-0.0046,-0.0047,0,-0.0134,-0.0135,-0.0136,-0.018,-0.018,-0.018,-0.0179,-0.0293,-0.0296,-0.0299,0,0,0,0,0,0,0,0,0,0,0,0,0,0.0032,0.0031,-0.0046,-0.0047,-0.0048,-0.0134,-0.0135,-0.0137,-0.018,-0.018,-0.018,-0.0179,-0.0292,-0.0296,-0.0299,0,0,0,0,0,0,0,0,0,0,0,0,0,-0.0025,0.0031,-0.0046,-0.0078,-0.0082,-0.0133,-0.0135,-0.0137,-0.018,-0.018,-0.018,-0.0179,-0.0291,-0.0295,-0.03,-0.0335,0,0,-0.0315,-0.0317,0,0,0,0,0,0,0,0,-0.0022,-0.0028,-0.0072,-0.0076,-0.008,-0.0144,-0.0149,-0.0204,-0.018,-0.0145,-0.0179,-0.0179,-0.0244,-0.0253,-0.0273,-0.0341,-0.0346,-0.0315,-0.0318,-0.032,-0.0321,0,0,0,0,0,0,0,-0.0018,-0.0025,-0.0083,-0.0073,-0.0078,-0.0106,-0.0114,-0.016,-0.0197,-0.0148,-0.0151,-0.0157,-0.0247,-0.0268,-0.0276,-0.0347,-0.0315,-0.0319,-0.0322,-0.0324,-0.0432,-0.0432,0,0,0,0,0,0,-0.0,-0.0021,-0.008,-0.0085,-0.0047,-0.0107,-0.0116,-0.0125,-0.0196,-0.0206,-0.0158,-0.0159,-0.026,-0.027,-0.028,-0.0301,-0.032,-0.0325,-0.0327,-0.0432,-0.0432,-0.0432,0,0,0,0,0,0,0.0002,-0.0005,-0.0077,-0.0053,-0.0064,-0.0108,-0.0119,-0.0127,-0.0146,-0.0203,-0.0213,-0.0166,-0.026,-0.0273,-0.0313,-0.0306,-0.0327,-0.0331,-0.0432,-0.0432,-0.0432,-0.0359,0,0,0,0,0,0,0.0004,-0.0004,-0.0006,-0.0052,-0.0065,-0.011,-0.0119,-0.0129,-0.0149,-0.0152,-0.0214,-0.0225,-0.0261,-0.0305,-0.0317,-0.0313,-0.0335,-0.0432,-0.0432,-0.0432,-0.0361,-0.0356,-0.0352,0,0,0,0,0,0.0007,0.0004,-0.0006,-0.0013,-0.0066,-0.011,-0.012,-0.0151,-0.0149,-0.0165,-0.0195,-0.0223,-0.0314,-0.0309,-0.0324,-0.0321,-0.0432,-0.0432,-0.0432,-0.0363,-0.0357,-0.0352,0,0,0,0,0,0,0.0037,-0.0002,-0.0014,-0.0029,-0.0066,-0.0116,-0.0128,-0.0147,-0.0184,-0.0179,-0.0228,-0.0241,-0.0274,-0.031,-0.0303,-0.0352,-0.0376,-0.0379,-0.0319,-0.0314,-0.0309,-0.0289,-0.0339,0,0,0,0,0,0.0044,0.0032,-0.0014,-0.0025,-0.004,-0.0081,-0.0101,-0.0122,-0.0159,-0.0174,-0.0215,-0.0253,-0.0287,-0.0308,-0.0351,-0.0381,-0.039,-0.0387,-0.0383,-0.0378,-0.0372,-0.0374,-0.0368,-0.0432,-0.0432,-0.0432,0,0,0.0056,0.0032,0.0026,-0.0019,-0.0046,-0.0067,-0.0093,-0.0119,-0.0131,-0.0181,-0.0208,-0.0244,-0.0293,-0.0322,-0.0339,-0.0349,-0.0364,-0.0378,-0.0374,-0.037,-0.0373,-0.0366,-0.0361,-0.0432,-0.0432,-0.0432,0,0,0.0074,0.005,0.0046,0.0016,-0.0022,-0.0052,-0.0056,-0.0105,-0.0122,-0.0158,-0.0184,-0.0211,-0.0279,-0.0301,-0.0322,-0.0321,-0.0341,-0.0336,-0.0294,-0.0295,-0.029,-0.0285,-0.0275,-0.0269,-0.033,-0.033,-0.033,0,0.0093,0.008,0.0037,0.0024,0.0011,-0.0039,-0.0044,-0.0076,-0.013,-0.0128,-0.0159,-0.022,-0.0268,-0.0277,-0.0278,-0.0309,-0.0307,-0.0307,-0.0287,-0.0282,-0.0278,-0.027,-0.0265,-0.0326,-0.0327,-0.0327,-0.0327,0,0.0106,0.0095,0.009,0.006,0.0035,0.0021,-0.0024,-0.0044,-0.0069,-0.0089,-0.0112,-0.0175,-0.0203,-0.0225,-0.0257,-0.0247,-0.0253,-0.0279,-0.0293,-0.0267,-0.026,-0.0256,-0.0321,-0.0322,-0.0324,-0.0324,0,0,0.016,0.0112,0.0114,0.0108,0.0057,0.0041,0.0024,0.0005,0.0027,-0.0041,-0.0018,-0.0095,-0.0113,-0.0138,-0.0177,-0.0187,-0.0164,-0.0216,-0.0217,-0.0192,-0.0149,-0.0162,-0.0159,-0.0178,-0.0178,-0.0177,-0.015,0,0.019,0.0186,0.0149,0.0146,0.0141,0.0095,0.0093,0.0072,0.0052,0.0058,0.0003,-0.0006,-0.0083,-0.0086,-0.0109,-0.0142,-0.0152,-0.0168,-0.0191,-0.0192,-0.0195,-0.0155,-0.0153,-0.0129,-0.0146,-0.0145,-0.0145,0,0.0221,0.0215,0.0222,0.0204,0.0201,0.0192,0.0201,0.0186,0.0182,0.0173,0.0152,0.0116,0.0089,0.0015,-0.0033,-0.0033,-0.0088,-0.0126,-0.0126,-0.0162,-0.0198,-0.0163,-0.0122,-0.0285,-0.0139,-0.014,-0.014,0,0.0287,0.0267,0.028,0.027,0.0241,0.0248,0.0235,0.0234,0.0252,0.0248,0.0283,0.023,0.0231,0.0145,0.0055,0.0019,0.0016,-0.0046,-0.0111,-0.0112,-0.0128,-0.0132,-0.0236,-0.0085,-0.0085,-0.0085,-0.0085,0,0.0333,0.0342,0.0314,0.0319,0.0353,0.0309,0.0351,0.034,0.0358,0.0424,0.0348,0.0406,0.0266,0.0244,0.0121,0.004,0.0066,-0.0089,-0.0103,-0.0103,-0.0105,-0.0264,-0.0357,-0.0084,-0.0084,-0.0085,-0.0085,0,0.0392,0.0373,0.0384,0.0374,0.0379,0.0398,0.041,0.0452,0.0461,0.0547,0.0553,0.0556,0.054,0.0405,0.0301,0.0154,-0.0037,0.0008,0.0023,0.001,-0.0239,-0.0328,-0.0437,-0.0513,-0.0068,-0.0069,-0.0069,0,0.0417,0.0431,0.0434,0.0453,0.0447,0.0469,0.0503,0.0501,0.0558,0.066,0.0727,0.0743,0.0796,0.0638,0.0389,0.0189,0.0012,0.002,-0.0076,-0.0239,-0.0347,-0.042,-0.0481,-0.0061,-0.0061,-0.0061,-0.0061,0,0.0468,0.047,0.048,0.0528,0.0558,0.0596,0.0646,0.0713,0.0757,0.0866,0.1026,0.1082,0.0946,0.0771,0.0467,0.0293,-0.0105,0.0011,-0.0159,-0.0349,-0.0431,-0.0513,-0.009,-0.0061,-0.0061,-0.0061,-0.0061,-0.0061,0.0507,0.0531,0.0556,0.0601,0.0646,0.073,0.0794,0.0893,0.103,0.1216,0.1252,0.1377,0.1076,0.0682,0.0427,-0.0079,-0.0094,-0.0264,-0.0353,-0.0407,-0.0505,-0.0079,-0.0072,-0.0072,-0.0072,-0.0072,-0.0072,0,0.0552,0.0584,0.0631,0.0688,0.0757,0.0769,0.0901,0.0996,0.1204,0.1384,0.1535,0.1466,0.1075,0.064,-0.002,-0.0385,-0.0533,-0.0589,-0.0706,-0.075,-0.0366,-0.0393,-0.0452,-0.0451,-0.0451,-0.0451,-0.0451,-0.0451,0.0575,0.0633,0.066,0.0779,0.0829,0.0947,0.1036,0.1208,0.1356,0.1592,0.1687,0.1733,0.142,0.0255,-0.0564,-0.0761,-0.1003,-0.1054,-0.118,-0.0945,-0.0922,-0.09,-0.095,-0.1124,-0.1125,-0.1529,-0.1533,-0.1537]}],[{"header":{"parameterUnit":"m.s-1","parameterCategory":2,"la1":30.2991,"la2":30.254,"lo1":-89.0895,"lo2":-89.0444,"dy":0.0017,"dx":0.0017,"nx":28,"ny":28,"refTime":"2023-10-25T09:00:00:Z","depth":"2","parameterNumber":2,"parameterNumberName":"U-component_of_CURRENTS"},"data":[0,0,0,0,0,0,0,0,0,0,0,0,0,0,0,0,0,0,0,0,0,0,0,0,0,0,0,0,0,0,0,0,0,0,0,0,0,0,0,0,0,0,0,0,0,0,0,0,0,0,0,0,0,0,0,0,0,0,0.238,0.2381,0,0.2407,0.2407,0.2406,0.2384,0.2383,0.2383,0.2383,0.241,0.241,0.2411,0,0,0,0,0,0,0,0,0,0,0,0,0,0.232,0.2321,0.238,0.2381,0.2382,0.2407,0.2407,0.2406,0.2384,0.2383,0.2383,0.2383,0.2409,0.241,0.2411,0,0,0,0,0,0,0,0,0,0,0,0,0,0.2339,0.2321,0.238,0.238,0.2381,0.2407,0.2407,0.2406,0.2384,0.2383,0.2383,0.2383,0.2409,0.241,0.2412,0.2426,0,0,0.2416,0.2416,0,0,0,0,0,0,0,0,0.2338,0.234,0.2379,0.238,0.2381,0.2399,0.2396,0.2416,0.2384,0.2374,0.2383,0.2383,0.2412,0.2413,0.2407,0.2427,0.2428,0.2416,0.2417,0.2417,0.2418,0,0,0,0,0,0,0,0.2336,0.2339,0.2383,0.238,0.2382,0.2383,0.2384,0.2399,0.2388,0.2375,0.2375,0.2391,0.2411,0.2405,0.2407,0.2429,0.2416,0.2417,0.2418,0.2418,0.2535,0.2538,0,0,0,0,0,0,0.2349,0.2338,0.2382,0.2384,0.2368,0.2385,0.2386,0.2387,0.2388,0.239,0.2392,0.239,0.2403,0.2406,0.2408,0.2466,0.2417,0.2418,0.2419,0.2533,0.2536,0.2538,0,0,0,0,0,0,0.2348,0.2352,0.2381,0.2369,0.2374,0.2387,0.2388,0.2388,0.2389,0.2402,0.2402,0.2395,0.2403,0.2406,0.2447,0.2465,0.2419,0.242,0.253,0.2534,0.2537,0.2556,0,0,0,0,0,0,0.2345,0.2351,0.2359,0.2369,0.2375,0.2421,0.2389,0.2389,0.2404,0.2402,0.2406,0.2407,0.2403,0.2445,0.2448,0.2466,0.2421,0.2527,0.2532,0.2536,0.2552,0.256,0.2566,0,0,0,0,0,0.2343,0.2359,0.2359,0.2366,0.2384,0.2424,0.2427,0.2429,0.2404,0.2423,0.2426,0.2407,0.2475,0.2448,0.2451,0.247,0.2525,0.2531,0.2536,0.2549,0.2558,0.2566,0,0,0,0,0,0,0.2334,0.236,0.2359,0.2381,0.2413,0.2424,0.2438,0.2435,0.2447,0.2445,0.2433,0.2437,0.2485,0.2483,0.2454,0.2522,0.2499,0.2505,0.2508,0.2516,0.2523,0.2528,0.2422,0,0,0,0,0,0.2339,0.2357,0.2386,0.2406,0.2419,0.2426,0.244,0.2451,0.2465,0.2467,0.2484,0.2496,0.2508,0.2516,0.2545,0.2572,0.2576,0.2592,0.2599,0.2604,0.2615,0.2642,0.2652,0.2555,0.2555,0.2555,0,0,0.2339,0.236,0.2368,0.2407,0.2418,0.2454,0.2431,0.2467,0.2493,0.2471,0.2517,0.253,0.2527,0.2568,0.2587,0.2564,0.2635,0.2611,0.2614,0.2623,0.2649,0.2658,0.2666,0.2559,0.2558,0.2558,0,0,0.2358,0.2367,0.239,0.2422,0.2467,0.2483,0.2497,0.2534,0.254,0.2588,0.2579,0.2607,0.2636,0.264,0.2634,0.2698,0.268,0.2709,0.2729,0.2756,0.2763,0.2769,0.2782,0.2789,0.2698,0.2698,0.2698,0,0.236,0.2389,0.2407,0.2444,0.2473,0.2496,0.2533,0.2551,0.2605,0.2614,0.2615,0.2665,0.2666,0.2682,0.2704,0.2709,0.272,0.2687,0.2761,0.2768,0.2774,0.2785,0.2793,0.27,0.27,0.2699,0.2699,0,0.2397,0.2426,0.2444,0.2495,0.2533,0.2573,0.261,0.2645,0.2658,0.268,0.2727,0.2741,0.2764,0.2767,0.2745,0.2791,0.2782,0.2772,0.273,0.2784,0.2793,0.2801,0.2702,0.2701,0.2701,0.2701,0,0,0.2369,0.2453,0.2455,0.2488,0.2562,0.2594,0.2639,0.2684,0.2704,0.2758,0.2786,0.2809,0.2826,0.2826,0.2818,0.283,0.2873,0.2818,0.2819,0.2812,0.2928,0.291,0.2917,0.2873,0.2874,0.2876,0.2913,0,0.2387,0.2457,0.2499,0.2567,0.2603,0.2643,0.2683,0.273,0.2765,0.2812,0.2815,0.2856,0.2843,0.2855,0.2873,0.2894,0.2897,0.2864,0.2894,0.2895,0.2857,0.2926,0.2713,0.2728,0.2921,0.2922,0.2923,0,0.2395,0.2446,0.251,0.2594,0.261,0.2663,0.2721,0.2766,0.2822,0.2846,0.2887,0.2908,0.2952,0.2924,0.2981,0.2964,0.295,0.2947,0.2948,0.2932,0.2893,0.271,0.2735,0.2936,0.2935,0.2934,0.2933,0,0.235,0.2445,0.2495,0.2525,0.2627,0.2655,0.271,0.2775,0.2814,0.2878,0.2927,0.2972,0.3033,0.3026,0.3042,0.3016,0.3094,0.3053,0.3014,0.3012,0.2838,0.2818,0.3069,0.3069,0.3069,0.3069,0.3068,0,0.2336,0.2372,0.248,0.2506,0.2565,0.2645,0.2708,0.2754,0.2842,0.2908,0.2956,0.3026,0.3069,0.3117,0.3077,0.3097,0.3128,0.304,0.3032,0.284,0.2821,0.3006,0.2998,0.307,0.307,0.3069,0.3069,0,0.2266,0.2334,0.2398,0.251,0.2546,0.2586,0.2711,0.2756,0.2853,0.2944,0.2971,0.3108,0.3183,0.319,0.3213,0.3177,0.3154,0.3131,0.2905,0.287,0.3036,0.3029,0.3101,0.3101,0.3101,0.3101,0.3101,0,0.224,0.2264,0.2384,0.2422,0.2475,0.2556,0.2609,0.2728,0.2785,0.2987,0.3024,0.3164,0.3204,0.3259,0.322,0.3157,0.3171,0.2926,0.2838,0.3061,0.3046,0.3039,0.3032,0.2603,0.2599,0.2595,0.2593,0,0.2186,0.2226,0.2299,0.2371,0.2437,0.2497,0.2593,0.2635,0.2785,0.2862,0.299,0.3047,0.3169,0.3057,0.3039,0.2966,0.2923,0.2859,0.3155,0.2645,0.2599,0.2582,0.259,0.2563,0.2566,0.2568,0.257,0.2571,0.2159,0.2184,0.2269,0.2331,0.2394,0.2421,0.2435,0.2528,0.2588,0.2666,0.2826,0.2829,0.2898,0.2768,0.2672,0.2627,0.2811,0.2658,0.2665,0.2675,0.2628,0.2587,0.2538,0.2541,0.2543,0.2545,0.2547,0,0.2084,0.2139,0.2212,0.2277,0.2288,0.2352,0.2401,0.2378,0.2381,0.2477,0.2514,0.2333,0.2284,0.2339,0.2241,0.2251,0.2182,0.2146,0.2028,0.2063,0.2093,0.201,0.1759,0.1756,0.1753,0.175,0,0,0.2055,0.2083,0.2123,0.214,0.2184,0.2154,0.2148,0.2116,0.2134,0.2062,0.2034,0.2169,0.2293,0.1982,0.1964,0.1849,0.1928,0.1779,0.2425,0.2325,0.235,0.2422,0.2341,0,0,0,0,0]},{"header":{"parameterUnit":"m.s-1","parameterCategory":2,"la1":30.2991,"la2":30.254,"lo1":-89.0895,"lo2":-89.0444,"dy":0.0017,"dx":0.0017,"nx":28,"ny":28,"refTime":"2023-10-25T09:00:00:Z","depth":"2","parameterNumber":3,"parameterNumberName":"V-component_of_CURRENTS"},"data":[0,0,0,0,0,0,0,0,0,0,0,0,0,0,0,0,0,0,0,0,0,0,0,0,0,0,0,0,0,0,0,0,0,0,0,0,0,0,0,0,0,0,0,0,0,0,0,0,0,0,0,0,0,0,0,0,0,0,0.0008,0.0008,0,-0.0055,-0.0056,-0.0056,-0.0088,-0.0088,-0.0088,-0.0088,-0.019,-0.0192,-0.0195,0,0,0,0,0,0,0,0,0,0,0,0,0,0.005,0.005,0.0008,0.0007,0.0007,-0.0055,-0.0056,-0.0057,-0.0088,-0.0088,-0.0088,-0.0088,-0.0189,-0.0192,-0.0195,0,0,0,0,0,0,0,0,0,0,0,0,0,0.0014,0.005,0.0008,-0.0017,-0.002,-0.0055,-0.0056,-0.0057,-0.0088,-0.0088,-0.0088,-0.0088,-0.0188,-0.0192,-0.0196,-0.0219,0,0,-0.0208,-0.021,0,0,0,0,0,0,0,0,0.0017,0.0013,-0.0012,-0.0015,-0.0018,-0.0064,-0.0078,-0.0113,-0.0088,-0.0062,-0.0088,-0.0088,-0.0152,-0.0159,-0.0169,-0.0224,-0.0228,-0.0208,-0.0211,-0.0213,-0.0214,0,0,0,0,0,0,0,0.0019,0.0015,-0.0016,-0.0013,-0.0017,-0.0043,-0.0047,-0.0085,-0.0106,-0.0064,-0.0067,-0.0074,-0.0153,-0.0165,-0.0172,-0.023,-0.0208,-0.0212,-0.0214,-0.0216,-0.0332,-0.0333,0,0,0,0,0,0,0.0029,0.0018,-0.0014,-0.0018,-0.0001,-0.0043,-0.0048,-0.0049,-0.0105,-0.0113,-0.0074,-0.0075,-0.0158,-0.0167,-0.0176,-0.0211,-0.0212,-0.0216,-0.0219,-0.0332,-0.0332,-0.0333,0,0,0,0,0,0,0.003,0.0027,-0.0012,-0.0002,-0.0009,-0.0043,-0.0044,-0.005,-0.0061,-0.0112,-0.0121,-0.0078,-0.0159,-0.017,-0.0211,-0.0215,-0.0218,-0.0222,-0.0331,-0.0332,-0.0333,-0.0279,0,0,0,0,0,0,0.0032,0.0028,0.003,-0.0001,-0.0009,-0.0033,-0.0044,-0.0051,-0.0066,-0.0068,-0.0119,-0.0128,-0.016,-0.0205,-0.0215,-0.022,-0.0225,-0.033,-0.0331,-0.0332,-0.028,-0.0278,-0.0276,0,0,0,0,0,0.0034,0.0037,0.003,0.0026,-0.0005,-0.0033,-0.0039,-0.0064,-0.0066,-0.0073,-0.0106,-0.0127,-0.022,-0.0208,-0.022,-0.0227,-0.0329,-0.0331,-0.0332,-0.028,-0.0278,-0.0276,0,0,0,0,0,0,0.0055,0.0034,0.0025,0.0022,-0.0003,-0.0038,-0.0045,-0.006,-0.0091,-0.0093,-0.0134,-0.0147,-0.0188,-0.0217,-0.0202,-0.0267,-0.0279,-0.0283,-0.0236,-0.0234,-0.0232,-0.0206,-0.0228,0,0,0,0,0,0.0062,0.006,0.0031,0.0028,0.002,-0.001,-0.0024,-0.0042,-0.0073,-0.0086,-0.013,-0.0172,-0.0205,-0.0224,-0.0269,-0.0298,-0.0304,-0.0313,-0.0311,-0.0309,-0.0298,-0.0295,-0.0291,-0.0338,-0.0338,-0.0338,0,0,0.0069,0.0057,0.0056,0.0032,0.0015,-0.0005,-0.0018,-0.0037,-0.0057,-0.0094,-0.0138,-0.0173,-0.0214,-0.0252,-0.0272,-0.0273,-0.0303,-0.0311,-0.0309,-0.0298,-0.0296,-0.0291,-0.0286,-0.0339,-0.0339,-0.0339,0,0,0.0082,0.0074,0.0076,0.0056,0.0029,0.0003,0.0,-0.0043,-0.006,-0.0106,-0.0133,-0.0161,-0.0234,-0.0251,-0.0267,-0.0283,-0.0299,-0.0307,-0.0269,-0.0266,-0.0261,-0.0257,-0.0265,-0.0262,-0.0298,-0.0298,-0.0298,0,0.0091,0.009,0.007,0.0062,0.0049,0.001,0.0002,-0.0027,-0.0085,-0.0081,-0.0119,-0.0187,-0.023,-0.0234,-0.0246,-0.0276,-0.028,-0.0268,-0.026,-0.0256,-0.0252,-0.0262,-0.0259,-0.0296,-0.0296,-0.0296,-0.0297,0,0.0099,0.0097,0.0097,0.0073,0.0052,0.004,-0.0002,-0.0025,-0.0057,-0.0077,-0.0104,-0.0164,-0.019,-0.0217,-0.024,-0.0232,-0.0246,-0.0259,-0.0255,-0.0243,-0.0255,-0.0253,-0.0292,-0.0293,-0.0294,-0.0295,0,0,0.0133,0.0109,0.0111,0.0109,0.0062,0.005,0.0024,0.001,0.0029,-0.0049,-0.0028,-0.0105,-0.0118,-0.0138,-0.0171,-0.0176,-0.0169,-0.0204,-0.0205,-0.0193,-0.0166,-0.0205,-0.0207,-0.0173,-0.0173,-0.0172,-0.0186,0,0.015,0.0151,0.0126,0.0119,0.0117,0.008,0.0071,0.0052,0.0031,0.0033,-0.0008,-0.0021,-0.0092,-0.0096,-0.0114,-0.0144,-0.0159,-0.0164,-0.0195,-0.0196,-0.0216,-0.0205,-0.0178,-0.019,-0.0184,-0.0183,-0.0183,0,0.0168,0.0171,0.0177,0.0171,0.017,0.0153,0.0164,0.0145,0.0147,0.0138,0.0123,0.009,0.0068,0.0,-0.005,-0.0047,-0.0106,-0.0143,-0.0145,-0.0195,-0.0231,-0.0202,-0.0187,-0.018,-0.018,-0.018,-0.018,0,0.0216,0.0207,0.022,0.0212,0.0194,0.0202,0.0187,0.0191,0.0211,0.021,0.0242,0.0194,0.0192,0.011,0.0006,-0.0011,-0.0048,-0.0078,-0.0175,-0.0179,-0.0169,-0.0174,-0.0121,-0.0121,-0.0121,-0.0121,-0.0121,0,0.0247,0.0258,0.0248,0.0255,0.0288,0.0252,0.0293,0.0285,0.0306,0.037,0.0303,0.0349,0.0222,0.0179,0.0058,-0.0048,-0.0012,-0.0162,-0.018,-0.0154,-0.0157,-0.016,-0.0164,-0.0121,-0.0121,-0.0121,-0.0121,0,0.0292,0.0284,0.0302,0.0303,0.031,0.0329,0.0347,0.039,0.04,0.0482,0.0488,0.0481,0.0426,0.028,0.0166,0.004,-0.0075,-0.0132,-0.0104,-0.0119,-0.0222,-0.0224,-0.0223,-0.0225,-0.0226,-0.0227,-0.0228,0,0.0314,0.033,0.0348,0.0371,0.0371,0.0397,0.0433,0.0433,0.0489,0.0578,0.0638,0.0614,0.0612,0.041,0.0183,-0.0038,-0.0075,-0.0162,-0.0203,-0.0212,-0.023,-0.0229,-0.023,-0.0171,-0.0171,-0.0171,-0.0172,0,0.036,0.0367,0.0384,0.0441,0.0476,0.0518,0.0566,0.0628,0.0672,0.0755,0.0867,0.0872,0.0688,0.0482,0.016,0.0014,-0.013,-0.0176,-0.0163,-0.016,-0.0167,-0.0183,-0.0184,-0.0174,-0.0173,-0.0173,-0.0173,-0.0173,0.0397,0.0421,0.0456,0.0508,0.0557,0.0639,0.0693,0.0778,0.0886,0.1005,0.1013,0.1026,0.0786,0.0383,0.0118,-0.0155,-0.0145,-0.0241,-0.0238,-0.0235,-0.0238,-0.0247,-0.027,-0.027,-0.027,-0.0271,-0.0271,0,0.0439,0.0469,0.0524,0.0585,0.0651,0.0673,0.079,0.0859,0.101,0.1101,0.1163,0.0952,0.071,0.043,0.002,-0.0233,-0.024,-0.0303,-0.0257,-0.0253,-0.0249,-0.0251,-0.0288,-0.0289,-0.029,-0.029,0,0,0.0461,0.0515,0.0542,0.0655,0.071,0.0813,0.0887,0.1005,0.109,0.117,0.1177,0.1127,0.0805,0.0502,0.0165,-0.0063,-0.0099,-0.0103,-0.0061,0.0038,0.0044,-0.0184,-0.0179,0,0,0,0,0]}],[{"header":{"parameterUnit":"m.s-1","parameterCategory":2,"la1":30.2991,"la2":30.254,"lo1":-89.0895,"lo2":-89.0444,"dy":0.0017,"dx":0.0017,"nx":28,"ny":28,"refTime":"2023-10-25T09:00:00:Z","depth":"4","parameterNumber":2,"parameterNumberName":"U-component_of_CURRENTS"},"data":[0,0,0,0,0,0,0,0,0,0,0,0,0,0,0,0,0,0,0,0,0,0,0,0,0,0,0,0,0,0,0,0,0,0,0,0,0,0,0,0,0,0,0,0,0,0,0,0,0,0,0,0,0,0,0,0,0,0,0.1255,0.1255,0,0.1271,0.1271,0.1272,0.1319,0.1319,0.132,0.1321,0.1415,0.1417,0.1418,0,0,0,0,0,0,0,0,0,0,0,0,0,0.1275,0.1274,0.1255,0.1255,0.1255,0.1271,0.1271,0.1272,0.1319,0.132,0.1321,0.1321,0.1414,0.1416,0.1418,0,0,0,0,0,0,0,0,0,0,0,0,0,0.1278,0.1274,0.1255,0.1279,0.1281,0.1271,0.1271,0.1272,0.1318,0.132,0.1321,0.1322,0.1414,0.1416,0.1419,0.141,0,0,0.1427,0.1428,0,0,0,0,0,0,0,0,0.1278,0.1278,0.1275,0.1277,0.128,0.1292,0.1312,0.1321,0.1318,0.1307,0.1321,0.1323,0.1379,0.1384,0.1387,0.1414,0.1418,0.1427,0.1428,0.143,0.143,0,0,0,0,0,0,0,0.1278,0.1277,0.1264,0.1275,0.1278,0.1291,0.1293,0.1314,0.1339,0.1308,0.1311,0.1308,0.1381,0.1384,0.1389,0.142,0.1427,0.1429,0.1431,0.1432,0.1539,0.154,0,0,0,0,0,0,0.1269,0.1277,0.1263,0.1264,0.1279,0.129,0.1292,0.1289,0.1337,0.1344,0.1307,0.131,0.1379,0.1386,0.1393,0.1485,0.143,0.1432,0.1433,0.1537,0.1539,0.154,0,0,0,0,0,0,0.1269,0.1268,0.1263,0.1269,0.1269,0.1288,0.1284,0.1288,0.1318,0.1335,0.1345,0.1335,0.138,0.1389,0.1427,0.1486,0.1433,0.1435,0.1536,0.1538,0.154,0.1606,0,0,0,0,0,0,0.127,0.1268,0.1278,0.1268,0.1269,0.1264,0.1282,0.1288,0.1312,0.1317,0.1362,0.137,0.1382,0.1423,0.143,0.1488,0.1438,0.1534,0.1537,0.1539,0.1602,0.161,0.1617,0,0,0,0,0,0.127,0.1263,0.1278,0.1278,0.1277,0.1263,0.1265,0.1284,0.1313,0.1319,0.1354,0.137,0.1444,0.1426,0.1433,0.1494,0.1533,0.1536,0.1539,0.1599,0.1609,0.1617,0,0,0,0,0,0,0.1282,0.1267,0.1283,0.1276,0.1278,0.1271,0.1281,0.1297,0.1329,0.1351,0.1375,0.1385,0.1444,0.1449,0.1428,0.153,0.1497,0.1501,0.154,0.1549,0.1556,0.1549,0.144,0,0,0,0,0,0.1288,0.1281,0.1273,0.1274,0.1275,0.1288,0.1293,0.1307,0.1323,0.134,0.137,0.1412,0.1456,0.1485,0.151,0.1558,0.1566,0.1604,0.1612,0.1618,0.1616,0.1662,0.1674,0.155,0.155,0.155,0,0,0.1296,0.1286,0.1286,0.1277,0.1285,0.1282,0.1296,0.1306,0.133,0.1345,0.1398,0.1434,0.1471,0.1529,0.1558,0.1546,0.166,0.1621,0.1627,0.1622,0.1667,0.1679,0.169,0.1552,0.1551,0.1551,0,0,0.1287,0.1299,0.1287,0.1283,0.1289,0.1296,0.1305,0.1315,0.1353,0.1369,0.1426,0.1481,0.1512,0.1577,0.1607,0.1663,0.1691,0.1696,0.1739,0.1784,0.1795,0.1804,0.1844,0.1857,0.1707,0.1707,0.1707,0,0.1306,0.1267,0.1285,0.1269,0.1278,0.1305,0.1306,0.1336,0.1365,0.1413,0.1383,0.1489,0.1525,0.1643,0.1678,0.1682,0.1715,0.1707,0.1795,0.1804,0.1812,0.1851,0.1864,0.1711,0.171,0.171,0.171,0,0.1273,0.125,0.1241,0.1237,0.1272,0.1255,0.1309,0.1357,0.1387,0.1413,0.1505,0.1538,0.1605,0.1647,0.1678,0.1803,0.181,0.1794,0.1774,0.1829,0.1866,0.1878,0.1716,0.1715,0.1713,0.1713,0,0,0.1281,0.1221,0.1224,0.123,0.1244,0.1283,0.1343,0.1406,0.1465,0.1488,0.1555,0.1645,0.1681,0.1718,0.1793,0.1849,0.195,0.1867,0.1868,0.1908,0.2069,0.1939,0.194,0.1968,0.197,0.1972,0.2076,0,0.1241,0.1205,0.1195,0.121,0.1211,0.1272,0.1324,0.1421,0.1469,0.1539,0.1615,0.1689,0.1708,0.1768,0.1825,0.1929,0.1984,0.1924,0.2007,0.2009,0.1888,0.1949,0.1979,0.2085,0.2088,0.209,0.2092,0,0.1208,0.1192,0.1182,0.1213,0.1227,0.1259,0.1404,0.1449,0.1565,0.1607,0.169,0.1735,0.1875,0.1839,0.2002,0.1975,0.203,0.2074,0.2078,0.1937,0.19,0.2014,0.2113,0.2112,0.211,0.2108,0.2107,0,0.1235,0.1198,0.1202,0.1203,0.1238,0.1301,0.1358,0.1485,0.1551,0.1684,0.1723,0.1841,0.1918,0.1991,0.2086,0.2068,0.2222,0.2191,0.2118,0.211,0.2166,0.2155,0.2275,0.2275,0.2275,0.2275,0.2274,0,0.1177,0.1187,0.1217,0.1212,0.1269,0.1341,0.1419,0.1499,0.1603,0.1667,0.1775,0.1833,0.1963,0.2054,0.2112,0.2154,0.224,0.2132,0.2128,0.2193,0.2184,0.2176,0.2163,0.2278,0.2278,0.2277,0.2276,0,0.1171,0.1161,0.1176,0.1229,0.126,0.1336,0.1432,0.1481,0.1603,0.1691,0.1743,0.1881,0.1997,0.2097,0.223,0.2182,0.2237,0.2231,0.2312,0.231,0.2088,0.2078,0.2141,0.2137,0.2134,0.2131,0.2129,0,0.1141,0.1137,0.12,0.1225,0.1235,0.133,0.1367,0.1482,0.1532,0.1694,0.1726,0.1884,0.1959,0.2049,0.2151,0.2235,0.2219,0.222,0.2128,0.2084,0.2076,0.207,0.2064,0.2124,0.2123,0.2122,0.2122,0,0.1083,0.1117,0.1117,0.1166,0.1217,0.1266,0.1339,0.1362,0.1484,0.1609,0.169,0.1758,0.1879,0.1973,0.2065,0.2113,0.2195,0.2186,0.2192,0.2106,0.2065,0.2058,0.2056,0.2111,0.2112,0.2113,0.2114,0,0.1048,0.1025,0.1035,0.1082,0.1147,0.118,0.1224,0.1282,0.1347,0.1521,0.1542,0.1711,0.1852,0.1912,0.1989,0.2032,0.1998,0.1924,0.1943,0.1956,0.1846,0.1764,0.1721,0,0,0,0,0,0.1009,0.0952,0.0957,0.0977,0.1052,0.1104,0.1189,0.1235,0.1345,0.1369,0.1456,0.1561,0.167,0.1763,0.1777,0.19,0.1998,0.1903,0.1919,0.205,0.2063,0.195,0,0,0,0,0,0,0.0963,0.0939,0.0904,0.0907,0.0923,0.098,0.1036,0.1108,0.1135,0.1269,0.1356,0.1468,0.1619,0.1667,0.1752,0.1779,0.1756,0.2016,0.2012,0.2043,0.2054,0.2065,0.1953,0,0,0,0,0]},{"header":{"parameterUnit":"m.s-1","parameterCategory":2,"la1":30.2991,"la2":30.254,"lo1":-89.0895,"lo2":-89.0444,"dy":0.0017,"dx":0.0017,"nx":28,"ny":28,"refTime":"2023-10-25T09:00:00:Z","depth":"4","parameterNumber":3,"parameterNumberName":"V-component_of_CURRENTS"},"data":[0,0,0,0,0,0,0,0,0,0,0,0,0,0,0,0,0,0,0,0,0,0,0,0,0,0,0,0,0,0,0,0,0,0,0,0,0,0,0,0,0,0,0,0,0,0,0,0,0,0,0,0,0,0,0,0,0,0,0.0147,0.0147,0,0.0132,0.0132,0.0131,0.0104,0.0104,0.0103,0.0103,0.0052,0.0051,0.0049,0,0,0,0,0,0,0,0,0,0,0,0,0,0.0129,0.0129,0.0147,0.0147,0.0147,0.0132,0.0132,0.0131,0.0104,0.0104,0.0103,0.0103,0.0052,0.0051,0.0049,0,0,0,0,0,0,0,0,0,0,0,0,0,0.0125,0.0129,0.0147,0.0133,0.0132,0.0132,0.0132,0.0131,0.0104,0.0104,0.0103,0.0103,0.0052,0.0051,0.0049,0.0049,0,0,0.0044,0.0044,0,0,0,0,0,0,0,0,0.0126,0.0126,0.0135,0.0134,0.0133,0.0121,0.0106,0.0102,0.0104,0.0112,0.0103,0.0103,0.0073,0.007,0.0066,0.0046,0.0044,0.0044,0.0043,0.0042,0.0042,0,0,0,0,0,0,0,0.0126,0.0126,0.0139,0.0136,0.0134,0.012,0.0119,0.0105,0.0093,0.0112,0.011,0.0112,0.0072,0.0067,0.0064,0.0043,0.0044,0.0043,0.0042,0.0041,0.0041,0.0042,0,0,0,0,0,0,0.0134,0.0127,0.0139,0.0139,0.0131,0.0121,0.012,0.0124,0.0094,0.009,0.0113,0.0111,0.007,0.0066,0.0062,0.0079,0.0042,0.0041,0.004,0.004,0.0041,0.0042,0,0,0,0,0,0,0.0134,0.0136,0.014,0.0134,0.0134,0.0122,0.0127,0.0124,0.0121,0.0096,0.009,0.0113,0.007,0.0064,0.0064,0.0076,0.004,0.0039,0.0039,0.004,0.0042,0.0101,0,0,0,0,0,0,0.0134,0.0136,0.0142,0.0135,0.0134,0.0151,0.0127,0.0124,0.0124,0.0121,0.0095,0.0089,0.0069,0.0066,0.0062,0.0073,0.0037,0.0038,0.004,0.0041,0.0098,0.0104,0.011,0,0,0,0,0,0.0133,0.0146,0.0143,0.0144,0.0144,0.0152,0.0151,0.0139,0.0124,0.0132,0.0116,0.009,0.0074,0.0066,0.0061,0.0072,0.0037,0.0039,0.0041,0.0095,0.0103,0.0109,0,0,0,0,0,0,0.0139,0.0144,0.014,0.0153,0.0158,0.0149,0.0153,0.0144,0.0137,0.013,0.0103,0.0097,0.0103,0.0081,0.0073,0.0078,0.0051,0.0052,0.0094,0.0101,0.0107,0.0104,0.0036,0,0,0,0,0,0.0145,0.0157,0.0159,0.017,0.0172,0.0163,0.0164,0.0157,0.015,0.0146,0.0136,0.0119,0.0108,0.01,0.0092,0.0092,0.0053,0.0096,0.0102,0.0107,0.0102,0.006,0.0062,0.0049,0.0049,0.0049,0,0,0.0149,0.0155,0.016,0.0172,0.017,0.0187,0.0162,0.0167,0.0181,0.0141,0.016,0.0143,0.0115,0.0121,0.0121,0.0103,0.0092,0.011,0.0114,0.0106,0.0063,0.0064,0.0064,0.0051,0.0051,0.005,0,0,0.0164,0.017,0.0182,0.0193,0.0201,0.0203,0.0208,0.021,0.0209,0.0229,0.0199,0.0191,0.0189,0.0165,0.0151,0.0184,0.013,0.0183,0.0204,0.0164,0.0164,0.0164,0.0121,0.0116,0.018,0.018,0.018,0,0.0167,0.0187,0.0188,0.0207,0.0218,0.0215,0.0232,0.0239,0.0244,0.0241,0.0247,0.0226,0.0209,0.0187,0.0203,0.0196,0.0161,0.0179,0.017,0.0169,0.0168,0.0123,0.0117,0.0183,0.0183,0.0183,0.0182,0,0.019,0.0211,0.0222,0.0248,0.0261,0.0279,0.0289,0.0303,0.031,0.0311,0.0308,0.0288,0.0266,0.0267,0.0248,0.0226,0.0201,0.0187,0.015,0.0172,0.0125,0.0117,0.0188,0.0187,0.0186,0.0185,0,0,0.019,0.0229,0.0235,0.0253,0.0284,0.0297,0.0323,0.0338,0.0344,0.0358,0.0355,0.0348,0.0324,0.0306,0.0273,0.0244,0.0214,0.0215,0.0211,0.0168,0.0118,0.0102,0.0092,0.0194,0.0193,0.0193,0.009,0,0.0209,0.0249,0.0265,0.031,0.0331,0.0342,0.0368,0.0379,0.0389,0.0393,0.0361,0.0357,0.0341,0.0325,0.0295,0.0235,0.0196,0.0242,0.0106,0.0102,0.0081,0.0084,0.019,0.0084,0.0082,0.0081,0.008,0,0.0228,0.0255,0.0295,0.0337,0.0345,0.0375,0.0398,0.042,0.0419,0.0418,0.0398,0.0377,0.0336,0.0323,0.0225,0.0254,0.0189,0.0145,0.0139,0.0096,0.0072,0.0055,0.0066,0.0067,0.0068,0.0069,0.007,0,0.0227,0.0277,0.0309,0.0327,0.0373,0.0389,0.0413,0.0426,0.0445,0.0427,0.0432,0.0377,0.0353,0.0274,0.0196,0.0203,0.0083,0.0077,-0.0004,-0.0006,0.0011,0.0012,-0.0005,-0.0005,-0.0004,-0.0004,-0.0004,0,0.0245,0.0275,0.0314,0.0337,0.0377,0.0398,0.0435,0.0444,0.0457,0.0479,0.0442,0.0433,0.0342,0.0272,0.0189,0.0072,0.0071,-0.0007,-0.0035,0.004,0.0046,0.0006,0.0008,-0.0008,-0.0007,-0.0006,-0.0006,0,0.0248,0.0273,0.0316,0.0364,0.0382,0.041,0.047,0.0495,0.0499,0.052,0.0517,0.047,0.0376,0.0273,0.0137,0.0067,-0.0046,-0.0093,-0.0009,-0.003,-0.011,-0.0103,-0.0196,-0.0198,-0.0199,-0.02,-0.0201,0,0.0257,0.0277,0.0336,0.0367,0.0396,0.0444,0.0482,0.0511,0.0542,0.0546,0.0553,0.0476,0.0428,0.0228,0.011,-0.0072,-0.0094,-0.016,-0.0129,-0.0112,-0.013,-0.0121,-0.0113,-0.0203,-0.0203,-0.0203,-0.0204,0,0.0275,0.0292,0.033,0.039,0.0438,0.0491,0.0546,0.0569,0.0601,0.0606,0.0583,0.0489,0.0373,0.0226,0.0079,-0.0046,-0.0117,-0.0173,-0.0171,-0.0143,-0.0121,-0.0136,-0.0126,-0.0208,-0.0207,-0.0207,-0.0207,0,0.0291,0.0314,0.036,0.0415,0.0471,0.0521,0.0551,0.0589,0.0616,0.0623,0.061,0.0496,0.0434,0.0237,0.0106,-0.0024,-0.0055,-0.009,-0.0093,-0.009,-0.0024,0.0022,-0.0052,0,0,0,0,0,0.0304,0.0329,0.0382,0.0436,0.0491,0.0525,0.0589,0.0614,0.064,0.0632,0.0627,0.0523,0.0333,0.0251,0.0117,0.0067,-0.0091,-0.0096,-0.0136,-0.0231,-0.0226,-0.0168,0,0,0,0,0,0,0.0312,0.0355,0.038,0.0444,0.048,0.0542,0.0582,0.0604,0.0603,0.0612,0.0516,0.048,0.0294,0.0406,0.011,0.007,0.0025,-0.0181,-0.0184,-0.0234,-0.023,-0.0226,-0.0164,0,0,0,0,0]}]]